Вернуться в каталог

ARIANE 1 DEB

АктивенSSO
NORAD 17121·DEBRIS·🇫🇷 France

Запущен Feb 22, 1986 с Guiana Space Centre

Loading…

Ближайшие Пролёты (ближайшие 24 часа)

TLE

СвежийSource: Space-Track

Эпоха: Sep 14, 2026, 10:41 UTC

1 17121U 86019R   26257.44527978  .00000582  00000-0  21126-3 0  9994
2 17121  98.3032 245.0549 0054002 158.4235 353.8027 14.35940033 70442

Отслеживайте ARIANE 1 DEB в реальном времени с AllMySat

Download on the App Store